Terug naar catalogus

FENGYUN 1C DEB

ActiefPO
NORAD 30326·DEBRIS·🇨🇳 China

Gelanceerd May 10, 1999 vanaf Taiyuan Satellite Launch Center

Loading…

Volgende Passages (komende 24 uur)

TLE

VersSource: Space-Track

Epoch: Sep 14, 2026, 11:51 UTC

1 30326U 99025AAM 26257.49389282  .00000086  00000-0  10144-3 0  9993
2 30326  98.6154 128.3540 0141860 358.8037   1.2762 13.85574963992746

Volg FENGYUN 1C DEB in realtime met AllMySat

Download on the App Store